Regional Weather Roundup
Issued by NWS

Home | Current Version | Previous Version | Text Only | Print | Product List | Glossary Off
Versions: 1 2 3 4 5 6 7 8 9 10 11 12 13 14 15 16 17 18 19 20 21 22 23 24 25 26 27 28 29 30 31 32 33 34 35 36 37 38 39 40 41 42 43 44 45 46 47 48 49 50

000
ASUS45 KTFX 231310
RWRMT
MONTANA REGIONAL WEATHER ROUNDUP
NATIONAL WEATHER SERVICE GREAT FALLS MT
700 AM MDT SAT MAY 23 2015

NOTE: "FAIR" INDICATES FEW OR NO CLOUDS BELOW 12000 FEET WITH NO
SIGNIFICANT WEATHER AND/OR OBSTRUCTIONS TO VISIBILITY.

MTZ001>007-043-231400-
WEST OF THE DIVIDE

CITY           SKY/WX    TMP DP  RH WIND       PRES   REMARKS
KALISPELL      SUNNY     50  38  63 N8        30.02R
MISSOULA       PTCLDY    48  40  73 CALM      30.01R
BUTTE          CLOUDY    43  40  89 CALM      30.04R
MULLAN PASS    PTCLDY    49  33  54 VRB3      30.07R
DEER LODGE       N/A     48  41  76 CALM      30.08R
EUREKA           N/A     46  36  66 CALM      30.06R
HAMILTON         N/A     48  43  81 S5        30.00R
LIBBY            N/A     43  36  75 CALM      30.04R
RONAN            N/A     45  39  79 CALM      30.04R
THOMPSON FALLS   N/A     44  40  86 E1        30.05R
$$

MTZ008-052>055-231400-
SOUTHWEST MONTANA

CITY           SKY/WX    TMP DP  RH WIND       PRES   REMARKS
BOZEMAN        CLOUDY    50  45  83 S5        29.99S
DILLON         CLOUDY    47  43  86 CALM      30.00R
W YELLOWSTONE  CLOUDY    45  37  76 NE9       29.99S
THREE FORKS      N/A     51  31  46 CALM      29.99R
TWIN BRIDGES     N/A     50  40  68 N13       29.97S
$$

MTZ009-010-012-014-046-048-049-054-231400-
EAST SLOPES AND CENTRAL MONTANA

CITY           SKY/WX    TMP DP  RH WIND       PRES   REMARKS
CUT BANK       SUNNY     47  40  76 N5        30.08R
GREAT FALLS    CLOUDY    50  47  89 E9        30.06R
MALMSTROM AFB  LGT RAIN  49  48  95 E2        30.06R
HELENA         CLOUDY    54  43  66 W5        30.02R
CONRAD           N/A     46  46 100 CALM      30.08S
$$

MTZ011-013-016-021-045-047-050-051-231400-
NORTH CENTRAL MONTANA

CITY           SKY/WX    TMP DP  RH WIND       PRES   REMARKS
HAVRE          CLOUDY    55  47  74 NE9       30.04R
LEWISTOWN      LGT RAIN  50  47  89 CALM      30.04R
N BAR RANCH    CLOUDY    48  46  93 CALM      30.06R
CHINOOK          N/A     57  48  72 E6        30.05R
FORT BENTON      N/A     54  52  94 NW3       30.06R
$$

MTZ017>020-022>027-061-062-231400-
NORTHEAST MONTANA

CITY           SKY/WX    TMP DP  RH WIND       PRES   REMARKS
GLASGOW        PTSUNNY   55  41  59 E15       30.06R
JORDAN           N/A     51  42  71 E7        30.03R
SIDNEY         SUNNY     48  37  66 CALM      30.12S
WOLF POINT     MOSUNNY   52  41  66 E10       30.09S
MALTA            N/A     57  44  62 NE6       30.02R
PLENTYWOOD       N/A     55  39  54 NE3       30.12S
SCOBEY           N/A     48  34  58 E2        30.09S
$$

MTZ028>42-056>058-231400-
SOUTHCENTRAL AND SOUTHEAST MONTANA

CITY           SKY/WX    TMP DP  RH WIND       PRES   REMARKS
BAKER          PTSUNNY   45  41  86 SE15      30.07S
BILLINGS       CLOUDY    51  45  79 NE7       29.98R
LIVINGSTON     CLOUDY    51  47  86 NE3       30.00R
MILES CITY     MOSUNNY   49  41  74 N6        30.02S
BIG TIMBER       N/A     48  46  93 NE5       30.01S
EKALAKA          N/A     43  39  85 SE9       30.02S
FORSYTH          N/A     48  45  87 E7        30.01R
LAUREL           N/A     51  42  71 N3        29.98R
ROUNDUP          N/A     50  43  77 CALM      29.92S
$$

REGIONAL REPORTS...DAKOTAS

CITY           SKY/WX    TMP DP  RH WIND       PRES   REMARKS
WILLISTON      SUNNY     52  40  63 NE5       30.13R
MINOT          MOSUNNY   55  42  61 S5        30.14S
DICKINSON      PTSUNNY   45  41  86 SE9       30.11S
BEACH          FAIR      46  45  93 SE12      30.10F
CROSBY         FAIR      52  41  66 SW9       30.13F
WATFORD CITY   FAIR      48  37  66 E9        30.12S
BISMARCK       MOSUNNY   49  45  86 E3        30.17S
GRAND FORKS    MOSUNNY   54  44  69 S7        30.14S
FARGO          MOSUNNY   57  45  64 S10       30.19S
BUFFALO SD       N/A     47  43  86 E12       30.00S
RAPID CITY     CLOUDY    48  45  89 SE10      30.06S
$$

REGIONAL REPORTS...WYOMING/IDAHO/WASHINGTON

CITY           SKY/WX    TMP DP  RH WIND       PRES   REMARKS
GILLETTE       CLOUDY    47  44  90 SE12      29.98S
SHERIDAN       CLOUDY    47  44  90 W7        29.97S
BUFFALO WY     CLOUDY    46  44  93 E5        29.98R
CODY           CLOUDY    48  46  93 NE5       29.97S
YELLOWSTONE LA   N/A     41  35  79 VRB5      30.03R
IDAHO FALLS    CLOUDY    49  47  93 NW3       29.92S
SALMON         MOCLDY    46  45  93 CALM      29.97S
BOISE          MOCLDY    54  50  86 CALM      29.90R
SPOKANE        MOCLDY    54  51  90 SW5       29.99R
$$

REGIONAL REPORTS...ALBERTA

CITY           SKY/WX    TMP DP  RH WIND       PRES   REMARKS
EDMONTON       SUNNY     50  37  62 CALM      30.09S
CALGARY        MOSUNNY   45  30  57 CALM      30.13R
LETHBRIDGE     MOSUNNY   45  39  81 W6        30.10R
MEDICINE HAT   MOSUNNY   50  41  71 CALM      30.08S
$$

REGIONAL REPORTS...SASKATCHEWAN

CITY           SKY/WX    TMP DP  RH WIND       PRES   REMARKS
SWIFT CURRENT  PTSUNNY   52  37  58 S7        30.10R
REGINA         PTSUNNY   54  41  62 E3        30.13R
SASKATOON      PTSUNNY   50  41  71 S3        30.10S
$$


USA.gov is the U.S. government's official web portal to all federal, state and local government web resources and services.